Regional Weather Roundup
Issued by NWS

Home | Current Version | Previous Version | Graphics & Text | Print | Product List | Glossary On
Versions: 1 2 3 4 5 6 7 8 9 10 11 12 13 14 15 16 17 18 19 20 21 22 23 24 25 26 27 28 29 30 31 32 33 34 35 36 37 38 39 40 41 42 43 44 45 46 47 48 49 50
000
ASUS45 KCYS 222210
RWRWY

WYOMING REGIONAL WEATHER ROUNDUP
NATIONAL WEATHER SERVICE CHEYENNE WY
400 PM MDT FRI AUG 22 2014

NOTE:  "FAIR" INDICATES FEW OR NO CLOUDS BELOW 12,000 FEET
WITH NO SIGNIFICANT WEATHER AND/OR OBSTRUCTIONS TO VISIBILITY.

WYZ001-222300-
YELLOWSTONE NATIONAL PARK

CITY           SKY/WX    TMP DP  RH WIND       PRES   REMARKS
LK YELLOWSTONE   N/A     52  43  71 CALM      30.19F
W YELLOWSTONE  NOT AVBL

$$
WYZ002>013-054>058-071-098>099-222300-
NORTHERN WYOMING

CITY           SKY/WX    TMP DP  RH WIND       PRES   REMARKS
JACKSON        MOSUNNY   48  45  87 SW12      30.16S
CODY           CLOUDY    64  48  55 E5        30.05S
GREYBULL       PTSUNNY   68  55  63 CALM      29.99F
WORLAND        MOSUNNY   75  51  43 N12G18    29.98F
SHERIDAN       CLOUDY    70  56  61 N6        30.01F
BUFFALO        PTSUNNY   67  59  75 N10       30.05F
GILLETTE       PTSUNNY   80  51  36 E14G24    29.98F
HULETT         FAIR      73  59  60 MISG      30.04
NEWCASTLE      FAIR      81  46  30 MISG      30.01

$$
WYZ014>020-022>026-101>103-222300-
CENTRAL WYOMING

CITY           SKY/WX    TMP DP  RH WIND       PRES   REMARKS
BIG PINEY      LGT RAIN  51  48  89 N18       30.17F
PINEDALE       MOCLDY    54  43  66 NW13      30.18R
DUBOIS         DRIZZLE   52  43  71 N5        30.17F
LANDER         PTSUNNY   68  46  45 NW16      30.04S
RIVERTON       CLOUDY    70  45  40 NW15      30.03F
CASPER         PTSUNNY   77  47  34 E16G23    29.98F
DOUGLAS        CLOUDY    78  47  33 SE17      30.01F

$$
WYZ021-027>030-104>119-222300-
SOUTHERN WYOMING

CITY           SKY/WX    TMP DP  RH WIND       PRES   REMARKS
EVANSTON       PTSUNNY   60  47  61 N22G29    30.09S
KEMMERER       CLOUDY    54  46  76 N9        30.16R
FORT BRIDGER   MOCLDY    67  46  45 NW12      30.12S
ROCK SPRINGS   TSTM      64  49  57 N3        30.06R
DIXON          LGT RAIN  60  53  75 E12       30.16F
RAWLINS        CLOUDY    74  40  29 S14       30.09F
SARATOGA       MOCLDY    68  45  42 MISG      30.13S
LARAMIE        CLOUDY    68  47  46 SE22      30.15F
CHEYENNE         N/A     70  52  52 S15G28    30.12F
TORRINGTON     CLOUDY    76  55  48 E18G24    30.01F
PINE BLUFFS    CLOUDY    73  54  49 S12G18    30.09S

$$



USA.gov is the U.S. government's official web portal to all federal, state and local government web resources and services.